Location: Monrovia
(34.7865°N, 86.7139°W)
Time: 21:29:32
(UTC+00:00)

Cosmos 407 Rocket - Pass Details

Date: 14 July 2020
Orbit: 744 x 786 km, 74.0° (Epoch: 08 August)

Event Time Altitude Azimuth Distance (km) Brightness Sun altitude
Exits shadow 07:36:02 50° 315° (NW) 991 4.0 -28.5°
Drops below altitude 10° 07:40:40 10° 7° (N) 2,351 6.8 -28.1°
Sets 07:43:07 0° 12° (NNE) 3,282 7.9 -27.8°
